Time,TemperatureF,DewpointF,PressureIn,WindDirection,WindDirectionDegrees,WindSpeedMPH,WindSpeedGustMPH,Humidity,HourlyPrecipIn,Conditions,Clouds,dailyrainin,SoftwareType,DateUTC
2013-02-16 00:02:00,43.3,38.5,30.27,North,-999,0.0,0.0,83,0.00,,,-99.99,FreeWX-Wi 1.01,2013-02-16 08:02:00,
2013-02-16 00:07:00,43.3,38.5,30.27,North,-999,0.0,0.0,83,0.00,,,-99.99,FreeWX-Wi 1.01,2013-02-16 08:07:00,
2013-02-16 00:12:00,43.3,38.5,30.27,North,-999,0.0,0.0,83,0.00,,,-99.99,FreeWX-Wi 1.01,2013-02-16 08:12:00,
2013-02-16 00:17:00,43.3,38.5,30.24,North,-999,0.0,0.0,83,0.00,,,-99.99,FreeWX-Wi 1.01,2013-02-16 08:17:00,
2013-02-16 00:22:00,43.3,38.5,30.24,North,-999,0.0,0.0,83,0.00,,,-99.99,FreeWX-Wi 1.01,2013-02-16 08:22:00,
2013-02-16 00:27:00,43.3,38.5,30.24,North,-999,0.0,0.0,83,0.00,,,-99.99,FreeWX-Wi 1.01,2013-02-16 08:27:00,
2013-02-16 00:32:00,43.3,38.5,30.27,North,-999,0.0,0.0,83,0.00,,,-99.99,FreeWX-Wi 1.01,2013-02-16 08:32:00,
2013-02-16 00:37:00,43.5,38.7,30.27,North,-999,0.0,0.0,83,0.00,,,-99.99,FreeWX-Wi 1.01,2013-02-16 08:37:00,
2013-02-16 00:42:00,43.5,38.7,30.27,North,-999,0.0,0.0,83,0.00,,,-99.99,FreeWX-Wi 1.01,2013-02-16 08:42:00,
2013-02-16 00:47:00,43.5,38.7,30.27,North,-999,0.0,0.0,83,0.00,,,-99.99,FreeWX-Wi 1.01,2013-02-16 08:47:00,
2013-02-16 00:53:00,43.5,38.7,30.27,North,-999,0.0,0.0,83,0.00,,,-99.99,FreeWX-Wi 1.01,2013-02-16 08:53:00,
2013-02-16 00:58:00,43.5,38.7,30.27,North,-999,0.0,0.0,83,0.00,,,-99.99,FreeWX-Wi 1.01,2013-02-16 08:58:00,
2013-02-16 01:03:00,43.3,38.5,30.24,North,-999,0.0,0.0,83,0.00,,,-99.99,FreeWX-Wi 1.01,2013-02-16 09:03:00,
2013-02-16 01:08:00,43.3,38.5,30.24,North,-999,0.0,0.0,83,0.00,,,-99.99,FreeWX-Wi 1.01,2013-02-16 09:08:00,
2013-02-16 01:13:00,43.3,38.5,30.24,North,-999,0.0,0.0,83,0.00,,,-99.99,FreeWX-Wi 1.01,2013-02-16 09:13:00,
2013-02-16 01:18:00,43.3,38.5,30.27,North,-999,0.0,0.0,83,0.00,,,-99.99,FreeWX-Wi 1.01,2013-02-16 09:18:00,
2013-02-16 01:23:00,43.3,38.5,30.27,North,-999,0.0,0.0,83,0.00,,,-99.99,FreeWX-Wi 1.01,2013-02-16 09:23:00,
2013-02-16 01:28:00,43.2,38.3,30.27,North,-999,0.0,0.0,83,0.00,,,-99.99,FreeWX-Wi 1.01,2013-02-16 09:28:00,
2013-02-16 01:33:00,43.2,38.3,30.27,North,-999,0.0,0.0,83,0.00,,,-99.99,FreeWX-Wi 1.01,2013-02-16 09:33:00,
2013-02-16 01:38:00,43.2,38.3,30.27,North,-999,0.0,0.0,83,0.00,,,-99.99,FreeWX-Wi 1.01,2013-02-16 09:38:00,
2013-02-16 01:43:00,43.0,38.1,30.27,North,-999,0.0,0.0,83,0.00,,,-99.99,FreeWX-Wi 1.01,2013-02-16 09:43:00,
2013-02-16 01:48:00,43.0,38.1,30.27,North,-999,0.0,0.0,83,0.00,,,-99.99,FreeWX-Wi 1.01,2013-02-16 09:48:00,
2013-02-16 01:53:00,42.8,37.9,30.27,North,-999,0.0,0.0,83,0.00,,,-99.99,FreeWX-Wi 1.01,2013-02-16 09:53:00,
2013-02-16 01:58:00,42.6,37.8,30.27,North,-999,0.0,0.0,83,0.00,,,-99.99,FreeWX-Wi 1.01,2013-02-16 09:58:00,
2013-02-16 02:03:00,42.6,37.8,30.27,North,-999,0.0,0.0,83,0.00,,,-99.99,FreeWX-Wi 1.01,2013-02-16 10:03:00,
2013-02-16 02:08:00,42.6,37.8,30.27,North,-999,0.0,0.0,83,0.00,,,-99.99,FreeWX-Wi 1.01,2013-02-16 10:08:00,
2013-02-16 02:13:00,42.4,37.6,30.27,North,-999,0.0,0.0,83,0.00,,,-99.99,FreeWX-Wi 1.01,2013-02-16 10:13:00,
2013-02-16 02:18:00,42.4,37.9,30.24,North,-999,0.0,0.0,84,0.00,,,-99.99,FreeWX-Wi 1.01,2013-02-16 10:18:00,
2013-02-16 02:23:00,42.4,37.9,30.24,North,-999,0.0,0.0,84,0.00,,,-99.99,FreeWX-Wi 1.01,2013-02-16 10:23:00,
2013-02-16 02:28:00,42.4,37.9,30.24,North,-999,0.0,0.0,84,0.00,,,-99.99,FreeWX-Wi 1.01,2013-02-16 10:28:00,
2013-02-16 02:33:00,42.4,37.9,30.24,North,-999,0.0,0.0,84,0.00,,,-99.99,FreeWX-Wi 1.01,2013-02-16 10:33:00,
2013-02-16 02:38:00,42.4,37.9,30.24,North,-999,0.0,0.0,84,0.00,,,-99.99,FreeWX-Wi 1.01,2013-02-16 10:38:00,
2013-02-16 02:43:00,42.4,37.9,30.24,North,-999,0.0,0.0,84,0.00,,,-99.99,FreeWX-Wi 1.01,2013-02-16 10:43:00,
2013-02-16 02:48:00,42.4,37.9,30.24,North,-999,0.0,0.0,84,0.00,,,-99.99,FreeWX-Wi 1.01,2013-02-16 10:48:00,
2013-02-16 02:53:00,42.4,37.9,30.24,North,-999,0.0,0.0,84,0.00,,,-99.99,FreeWX-Wi 1.01,2013-02-16 10:53:00,
2013-02-16 02:58:00,42.3,37.8,30.24,North,-999,0.0,0.0,84,0.00,,,-99.99,FreeWX-Wi 1.01,2013-02-16 10:58:00,
2013-02-16 03:03:00,42.1,37.6,30.24,North,-999,0.0,0.0,84,0.00,,,-99.99,FreeWX-Wi 1.01,2013-02-16 11:03:00,
2013-02-16 03:08:00,42.1,37.6,30.24,North,-999,0.0,0.0,84,0.00,,,-99.99,FreeWX-Wi 1.01,2013-02-16 11:08:00,
2013-02-16 03:13:00,42.4,37.9,30.24,North,-999,0.0,0.0,84,0.00,,,-99.99,FreeWX-Wi 1.01,2013-02-16 11:13:00,
2013-02-16 03:18:00,42.6,38.1,30.24,North,-999,0.0,0.0,84,0.00,,,-99.99,FreeWX-Wi 1.01,2013-02-16 11:18:00,
2013-02-16 03:23:00,42.1,37.6,30.24,North,-999,0.0,0.0,84,0.00,,,-99.99,FreeWX-Wi 1.01,2013-02-16 11:23:00,
2013-02-16 03:28:00,41.7,36.9,30.24,North,-999,0.0,0.0,83,0.00,,,-99.99,FreeWX-Wi 1.01,2013-02-16 11:28:00,
2013-02-16 03:33:00,41.5,36.7,30.24,North,-999,0.0,0.0,83,0.00,,,-99.99,FreeWX-Wi 1.01,2013-02-16 11:33:00,
2013-02-16 03:38:00,41.5,36.7,30.24,North,-999,0.0,0.0,83,0.00,,,-99.99,FreeWX-Wi 1.01,2013-02-16 11:38:00,
2013-02-16 03:43:00,41.4,36.7,30.24,North,-999,0.0,0.0,83,0.00,,,-99.99,FreeWX-Wi 1.01,2013-02-16 11:43:00,
2013-02-16 03:48:00,41.2,36.5,30.24,North,-999,0.0,0.0,83,0.00,,,-99.99,FreeWX-Wi 1.01,2013-02-16 11:48:00,
2013-02-16 03:53:00,41.2,36.5,30.24,North,-999,0.0,0.0,83,0.00,,,-99.99,FreeWX-Wi 1.01,2013-02-16 11:53:00,
2013-02-16 03:58:00,41.2,36.5,30.24,North,-999,0.0,0.0,83,0.00,,,-99.99,FreeWX-Wi 1.01,2013-02-16 11:58:00,
2013-02-16 04:03:00,41.2,36.5,30.24,North,-999,0.0,0.0,83,0.00,,,-99.99,FreeWX-Wi 1.01,2013-02-16 12:03:00,
2013-02-16 04:08:00,41.4,36.7,30.24,North,-999,0.0,0.0,83,0.00,,,-99.99,FreeWX-Wi 1.01,2013-02-16 12:08:00,
2013-02-16 04:13:00,41.4,36.7,30.24,North,-999,0.0,0.0,83,0.00,,,-99.99,FreeWX-Wi 1.01,2013-02-16 12:13:00,
2013-02-16 04:18:00,41.4,36.9,30.24,North,-999,0.0,0.0,84,0.00,,,-99.99,FreeWX-Wi 1.01,2013-02-16 12:18:00,
2013-02-16 04:23:00,41.4,36.9,30.24,North,-999,0.0,0.0,84,0.00,,,-99.99,FreeWX-Wi 1.01,2013-02-16 12:23:00,
2013-02-16 04:28:00,41.5,37.0,30.24,North,-999,0.0,0.0,84,0.00,,,-99.99,FreeWX-Wi 1.01,2013-02-16 12:28:00,
2013-02-16 04:33:00,41.5,37.0,30.24,North,-999,0.0,0.0,84,0.00,,,-99.99,FreeWX-Wi 1.01,2013-02-16 12:33:00,
2013-02-16 04:38:00,41.5,37.0,30.24,North,-999,0.0,0.0,84,0.00,,,-99.99,FreeWX-Wi 1.01,2013-02-16 12:38:00,
2013-02-16 04:43:00,41.4,36.9,30.24,North,-999,0.0,0.0,84,0.00,,,-99.99,FreeWX-Wi 1.01,2013-02-16 12:43:00,
2013-02-16 04:48:00,41.4,36.9,30.24,North,-999,0.0,0.0,84,0.00,,,-99.99,FreeWX-Wi 1.01,2013-02-16 12:48:00,
2013-02-16 04:53:00,41.2,36.7,30.24,North,-999,0.0,0.0,84,0.00,,,-99.99,FreeWX-Wi 1.01,2013-02-16 12:53:00,
2013-02-16 04:58:00,41.2,36.5,30.24,North,-999,0.0,0.0,83,0.00,,,-99.99,FreeWX-Wi 1.01,2013-02-16 12:58:00,
2013-02-16 05:03:00,41.2,36.5,30.27,North,-999,0.0,0.0,83,0.00,,,-99.99,FreeWX-Wi 1.01,2013-02-16 13:03:00,
2013-02-16 05:09:00,41.0,36.3,30.27,North,-999,0.0,0.0,83,0.00,,,-99.99,FreeWX-Wi 1.01,2013-02-16 13:09:00,
2013-02-16 05:14:00,41.0,36.3,30.27,North,-999,0.0,0.0,83,0.00,,,-99.99,FreeWX-Wi 1.01,2013-02-16 13:14:00,
2013-02-16 05:19:00,41.0,36.3,30.27,North,-999,0.0,0.0,83,0.00,,,-99.99,FreeWX-Wi 1.01,2013-02-16 13:19:00,
2013-02-16 05:24:00,41.0,36.3,30.27,North,-999,0.0,0.0,83,0.00,,,-99.99,FreeWX-Wi 1.01,2013-02-16 13:24:00,
2013-02-16 05:29:00,41.2,36.7,30.27,North,-999,0.0,0.0,84,0.00,,,-99.99,FreeWX-Wi 1.01,2013-02-16 13:29:00,
2013-02-16 05:34:00,41.2,36.7,30.27,North,-999,0.0,0.0,84,0.00,,,-99.99,FreeWX-Wi 1.01,2013-02-16 13:34:00,
2013-02-16 05:39:00,41.4,36.9,30.27,North,-999,0.0,0.0,84,0.00,,,-99.99,FreeWX-Wi 1.01,2013-02-16 13:39:00,
2013-02-16 05:44:00,41.5,37.0,30.27,North,-999,0.0,0.0,84,0.00,,,-99.99,FreeWX-Wi 1.01,2013-02-16 13:44:00,
2013-02-16 05:49:00,41.7,37.2,30.27,North,-999,0.0,0.0,84,0.00,,,-99.99,FreeWX-Wi 1.01,2013-02-16 13:49:00,
2013-02-16 05:54:00,41.7,37.2,30.27,North,-999,0.0,0.0,84,0.00,,,-99.99,FreeWX-Wi 1.01,2013-02-16 13:54:00,
2013-02-16 05:59:00,41.7,37.2,30.27,North,-999,0.0,0.0,84,0.00,,,-99.99,FreeWX-Wi 1.01,2013-02-16 13:59:00,
2013-02-16 06:04:00,41.7,37.2,30.27,North,-999,0.0,0.0,84,0.00,,,-99.99,FreeWX-Wi 1.01,2013-02-16 14:04:00,
2013-02-16 06:09:00,41.9,37.8,30.27,North,-999,0.0,0.0,85,0.00,,,-99.99,FreeWX-Wi 1.01,2013-02-16 14:09:00,
2013-02-16 06:14:00,41.9,37.8,30.27,North,-999,0.0,0.0,85,0.00,,,-99.99,FreeWX-Wi 1.01,2013-02-16 14:14:00,
2013-02-16 06:19:00,42.1,37.9,30.27,North,-999,0.0,0.0,85,0.00,,,-99.99,FreeWX-Wi 1.01,2013-02-16 14:19:00,
2013-02-16 06:24:00,42.1,37.9,30.27,North,-999,0.0,0.0,85,0.00,,,-99.99,FreeWX-Wi 1.01,2013-02-16 14:24:00,
2013-02-16 06:29:00,42.3,38.1,30.27,North,-999,0.0,0.0,85,0.00,,,-99.99,FreeWX-Wi 1.01,2013-02-16 14:29:00,
2013-02-16 06:34:00,42.3,38.1,30.27,North,-999,0.0,0.0,85,0.00,,,-99.99,FreeWX-Wi 1.01,2013-02-16 14:34:00,
2013-02-16 06:39:00,42.3,38.1,30.27,North,-999,0.0,0.0,85,0.00,,,-99.99,FreeWX-Wi 1.01,2013-02-16 14:39:00,
2013-02-16 06:44:00,42.4,38.3,30.27,North,-999,0.0,0.0,85,0.00,,,-99.99,FreeWX-Wi 1.01,2013-02-16 14:44:00,
2013-02-16 06:49:00,42.4,38.3,30.30,North,-999,0.0,0.0,85,0.00,,,-99.99,FreeWX-Wi 1.01,2013-02-16 14:49:00,
2013-02-16 06:54:00,42.4,38.3,30.30,North,-999,0.0,0.0,85,0.00,,,-99.99,FreeWX-Wi 1.01,2013-02-16 14:54:00,
2013-02-16 06:59:00,42.6,38.5,30.30,North,-999,0.0,0.0,85,0.00,,,-99.99,FreeWX-Wi 1.01,2013-02-16 14:59:00,
2013-02-16 07:04:00,42.6,38.7,30.30,North,-999,0.0,0.0,86,0.00,,,-99.99,FreeWX-Wi 1.01,2013-02-16 15:04:00,
2013-02-16 07:09:00,42.8,38.7,30.30,North,-999,0.0,0.0,85,0.00,,,-99.99,FreeWX-Wi 1.01,2013-02-16 15:09:00,
2013-02-16 07:14:00,42.8,38.7,30.30,North,-999,0.0,0.0,85,0.00,,,-99.99,FreeWX-Wi 1.01,2013-02-16 15:14:00,
2013-02-16 07:19:00,42.8,38.7,30.30,North,-999,0.0,0.0,85,0.00,,,-99.99,FreeWX-Wi 1.01,2013-02-16 15:19:00,
2013-02-16 07:24:00,42.8,38.7,30.30,North,-999,0.0,0.0,85,0.00,,,-99.99,FreeWX-Wi 1.01,2013-02-16 15:24:00,
2013-02-16 07:29:00,42.8,38.7,30.30,North,-999,0.0,0.0,85,0.00,,,-99.99,FreeWX-Wi 1.01,2013-02-16 15:29:00,
2013-02-16 07:34:00,43.0,38.8,30.30,North,-999,0.0,0.0,85,0.00,,,-99.99,FreeWX-Wi 1.01,2013-02-16 15:34:00,
2013-02-16 07:39:00,43.0,38.8,30.30,North,-999,0.0,0.0,85,0.00,,,-99.99,FreeWX-Wi 1.01,2013-02-16 15:39:00,
2013-02-16 07:44:00,43.0,38.8,30.30,North,-999,0.0,0.0,85,0.00,,,-99.99,FreeWX-Wi 1.01,2013-02-16 15:44:00,
2013-02-16 07:49:00,43.0,38.8,30.27,North,-999,0.0,0.0,85,0.00,,,-99.99,FreeWX-Wi 1.01,2013-02-16 15:49:00,
2013-02-16 07:54:00,43.2,39.0,30.27,North,-999,0.0,0.0,85,0.00,,,-99.99,FreeWX-Wi 1.01,2013-02-16 15:54:00,
2013-02-16 07:59:00,43.2,39.0,30.27,North,-999,0.0,0.0,85,0.00,,,-99.99,FreeWX-Wi 1.01,2013-02-16 15:59:00,
2013-02-16 08:04:00,43.3,39.2,30.30,North,-999,0.0,0.0,85,0.00,,,-99.99,FreeWX-Wi 1.01,2013-02-16 16:04:00,
2013-02-16 08:09:00,43.5,39.6,30.30,North,-999,0.0,0.0,86,0.00,,,-99.99,FreeWX-Wi 1.01,2013-02-16 16:09:00,
2013-02-16 08:14:00,43.5,39.6,30.30,North,-999,0.0,0.0,86,0.00,,,-99.99,FreeWX-Wi 1.01,2013-02-16 16:14:00,
2013-02-16 08:19:00,43.7,39.7,30.30,North,-999,0.0,0.0,86,0.00,,,-99.99,FreeWX-Wi 1.01,2013-02-16 16:19:00,
2013-02-16 08:24:00,43.7,39.7,30.30,North,-999,0.0,0.0,86,0.00,,,-99.99,FreeWX-Wi 1.01,2013-02-16 16:24:00,
2013-02-16 08:29:00,43.9,39.9,30.30,North,-999,0.0,0.0,86,0.00,,,-99.99,FreeWX-Wi 1.01,2013-02-16 16:29:00,
2013-02-16 08:34:00,44.1,40.1,30.30,North,-999,0.0,0.0,86,0.00,,,-99.99,FreeWX-Wi 1.01,2013-02-16 16:34:00,
2013-02-16 08:39:00,44.2,40.3,30.30,North,-999,0.0,0.0,86,0.00,,,-99.99,FreeWX-Wi 1.01,2013-02-16 16:39:00,
2013-02-16 08:44:00,44.2,40.3,30.30,North,-999,0.0,0.0,86,0.00,,,-99.99,FreeWX-Wi 1.01,2013-02-16 16:44:00,
2013-02-16 08:49:00,44.4,40.5,30.30,North,-999,0.0,0.0,86,0.00,,,-99.99,FreeWX-Wi 1.01,2013-02-16 16:49:00,
2013-02-16 08:54:00,44.4,40.5,30.30,North,-999,0.0,0.0,86,0.00,,,-99.99,FreeWX-Wi 1.01,2013-02-16 16:54:00,
2013-02-16 08:59:00,44.4,40.5,30.30,North,-999,0.0,0.0,86,0.00,,,-99.99,FreeWX-Wi 1.01,2013-02-16 16:59:00,
2013-02-16 09:04:00,44.4,40.5,30.30,North,-999,0.0,0.0,86,0.00,,,-99.99,FreeWX-Wi 1.01,2013-02-16 17:04:00,
2013-02-16 09:09:00,44.4,40.5,30.30,North,-999,0.0,0.0,86,0.00,,,-99.99,FreeWX-Wi 1.01,2013-02-16 17:09:00,
2013-02-16 09:14:00,44.4,40.5,30.30,North,-999,0.0,0.0,86,0.00,,,-99.99,FreeWX-Wi 1.01,2013-02-16 17:14:00,
2013-02-16 09:19:00,44.4,40.5,30.30,North,-999,0.0,0.0,86,0.00,,,-99.99,FreeWX-Wi 1.01,2013-02-16 17:19:00,
2013-02-16 09:24:00,44.4,40.5,30.30,North,-999,0.0,0.0,86,0.00,,,-99.99,FreeWX-Wi 1.01,2013-02-16 17:24:00,
2013-02-16 09:29:00,44.6,40.6,30.30,North,-999,0.0,0.0,86,0.00,,,-99.99,FreeWX-Wi 1.01,2013-02-16 17:29:00,
2013-02-16 09:34:00,44.8,40.8,30.30,North,-999,0.0,0.0,86,0.00,,,-99.99,FreeWX-Wi 1.01,2013-02-16 17:34:00,
2013-02-16 09:39:00,45.1,41.2,30.30,North,-999,0.0,0.0,86,0.00,,,-99.99,FreeWX-Wi 1.01,2013-02-16 17:39:00,
2013-02-16 09:44:00,45.3,41.4,30.30,North,-999,0.0,0.0,86,0.00,,,-99.99,FreeWX-Wi 1.01,2013-02-16 17:44:00,
2013-02-16 09:49:00,45.5,41.5,30.30,North,-999,0.0,0.0,86,0.00,,,-99.99,FreeWX-Wi 1.01,2013-02-16 17:49:00,
2013-02-16 09:54:00,45.7,41.7,30.30,North,-999,0.0,0.0,86,0.00,,,-99.99,FreeWX-Wi 1.01,2013-02-16 17:54:00,
2013-02-16 09:59:00,46.0,42.1,30.30,North,-999,0.0,0.0,86,0.00,,,-99.99,FreeWX-Wi 1.01,2013-02-16 17:59:00,
2013-02-16 10:04:00,46.4,42.4,30.30,North,-999,0.0,0.0,86,0.00,,,-99.99,FreeWX-Wi 1.01,2013-02-16 18:04:00,
2013-02-16 10:09:00,46.6,42.6,30.30,North,-999,0.0,0.0,86,0.00,,,-99.99,FreeWX-Wi 1.01,2013-02-16 18:09:00,
2013-02-16 10:15:00,47.1,43.2,30.30,North,-999,0.0,0.0,86,0.00,,,-99.99,FreeWX-Wi 1.01,2013-02-16 18:15:00,
2013-02-16 10:20:00,47.5,43.5,30.30,North,-999,0.0,0.0,86,0.00,,,-99.99,FreeWX-Wi 1.01,2013-02-16 18:20:00,
2013-02-16 10:25:00,48.0,44.1,30.30,North,-999,0.0,0.0,86,0.00,,,-99.99,FreeWX-Wi 1.01,2013-02-16 18:25:00,
2013-02-16 10:30:00,48.6,44.6,30.30,North,-999,0.0,0.0,86,0.00,,,-99.99,FreeWX-Wi 1.01,2013-02-16 18:30:00,
2013-02-16 10:35:00,48.9,45.0,30.30,North,-999,0.0,0.0,86,0.00,,,-99.99,FreeWX-Wi 1.01,2013-02-16 18:35:00,
2013-02-16 10:40:00,49.6,45.7,30.30,North,-999,0.0,0.0,86,0.00,,,-99.99,FreeWX-Wi 1.01,2013-02-16 18:40:00,
2013-02-16 10:45:00,50.0,45.7,30.30,North,-999,0.0,0.0,85,0.00,,,-99.99,FreeWX-Wi 1.01,2013-02-16 18:45:00,
2013-02-16 10:50:00,50.2,45.9,30.30,North,-999,0.0,0.0,85,0.00,,,-99.99,FreeWX-Wi 1.01,2013-02-16 18:50:00,
2013-02-16 10:55:00,51.6,47.5,30.30,North,-999,0.0,0.0,86,0.00,,,-99.99,FreeWX-Wi 1.01,2013-02-16 18:55:00,
2013-02-16 11:00:00,52.9,48.7,30.30,North,-999,0.0,0.0,86,0.00,,,-99.99,FreeWX-Wi 1.01,2013-02-16 19:00:00,
2013-02-16 11:05:00,53.1,48.9,30.30,North,-999,0.0,0.0,86,0.00,,,-99.99,FreeWX-Wi 1.01,2013-02-16 19:05:00,
2013-02-16 11:10:00,53.2,49.1,30.30,North,-999,0.0,0.0,86,0.00,,,-99.99,FreeWX-Wi 1.01,2013-02-16 19:10:00,
2013-02-16 11:15:00,53.1,48.7,30.30,North,-999,0.0,0.0,85,0.00,,,-99.99,FreeWX-Wi 1.01,2013-02-16 19:15:00,
2013-02-16 11:20:00,52.7,48.4,30.30,North,-999,0.0,0.0,85,0.00,,,-99.99,FreeWX-Wi 1.01,2013-02-16 19:20:00,
2013-02-16 11:25:00,52.3,48.0,30.30,North,-999,0.0,0.0,85,0.00,,,-99.99,FreeWX-Wi 1.01,2013-02-16 19:25:00,
2013-02-16 11:30:00,52.0,47.7,30.30,North,-999,0.0,0.0,85,0.00,,,-99.99,FreeWX-Wi 1.01,2013-02-16 19:30:00,
2013-02-16 11:35:00,51.6,47.3,30.30,North,-999,0.0,0.0,85,0.00,,,-99.99,FreeWX-Wi 1.01,2013-02-16 19:35:00,
2013-02-16 11:40:00,51.6,47.5,30.30,North,-999,0.0,0.0,86,0.00,,,-99.99,FreeWX-Wi 1.01,2013-02-16 19:40:00,
2013-02-16 11:45:00,51.8,47.5,30.30,North,-999,0.0,0.0,85,0.00,,,-99.99,FreeWX-Wi 1.01,2013-02-16 19:45:00,
2013-02-16 11:50:00,51.8,47.5,30.30,North,-999,0.0,0.0,85,0.00,,,-99.99,FreeWX-Wi 1.01,2013-02-16 19:50:00,
2013-02-16 11:55:00,52.0,47.7,30.30,North,-999,0.0,0.0,85,0.00,,,-99.99,FreeWX-Wi 1.01,2013-02-16 19:55:00,
2013-02-16 12:00:00,52.0,47.7,30.30,North,-999,0.0,0.0,85,0.00,,,-99.99,FreeWX-Wi 1.01,2013-02-16 20:00:00,
2013-02-16 12:05:00,52.2,47.8,30.30,North,-999,0.0,0.0,85,0.00,,,-99.99,FreeWX-Wi 1.01,2013-02-16 20:05:00,
2013-02-16 12:10:00,52.0,47.7,30.30,North,-999,0.0,0.0,85,0.00,,,-99.99,FreeWX-Wi 1.01,2013-02-16 20:10:00,
2013-02-16 12:15:00,52.0,47.7,30.30,North,-999,0.0,0.0,85,0.00,,,-99.99,FreeWX-Wi 1.01,2013-02-16 20:15:00,
2013-02-16 12:20:00,52.2,47.8,30.30,North,-999,0.0,0.0,85,0.00,,,-99.99,FreeWX-Wi 1.01,2013-02-16 20:20:00,
2013-02-16 12:25:00,52.5,48.2,30.30,North,-999,0.0,0.0,85,0.00,,,-99.99,FreeWX-Wi 1.01,2013-02-16 20:25:00,
2013-02-16 12:30:00,52.9,48.6,30.30,North,-999,0.0,0.0,85,0.00,,,-99.99,FreeWX-Wi 1.01,2013-02-16 20:30:00,
2013-02-16 12:35:00,53.1,48.7,30.30,North,-999,0.0,0.0,85,0.00,,,-99.99,FreeWX-Wi 1.01,2013-02-16 20:35:00,
2013-02-16 12:40:00,53.4,49.1,30.30,North,-999,0.0,0.0,85,0.00,,,-99.99,FreeWX-Wi 1.01,2013-02-16 20:40:00,
2013-02-16 12:45:00,53.6,49.3,30.30,North,-999,0.0,0.0,85,0.00,,,-99.99,FreeWX-Wi 1.01,2013-02-16 20:45:00,
2013-02-16 12:50:00,54.0,49.6,30.30,North,-999,0.0,2.2,85,0.00,,,-99.99,FreeWX-Wi 1.01,2013-02-16 20:50:00,
2013-02-16 12:55:00,54.1,49.6,30.30,North,-999,0.0,0.0,85,0.00,,,-99.99,FreeWX-Wi 1.01,2013-02-16 20:55:00,
2013-02-16 13:00:00,54.3,49.8,30.30,North,-999,0.0,2.7,85,0.00,,,-99.99,FreeWX-Wi 1.01,2013-02-16 21:00:00,
2013-02-16 13:05:00,54.0,49.3,30.30,North,-999,0.0,2.7,84,0.00,,,-99.99,FreeWX-Wi 1.01,2013-02-16 21:05:00,
2013-02-16 13:10:00,53.8,49.1,30.30,North,-999,0.0,0.0,84,0.00,,,-99.99,FreeWX-Wi 1.01,2013-02-16 21:10:00,
2013-02-16 13:15:00,54.1,49.1,30.30,North,-999,0.0,0.0,83,0.00,,,-99.99,FreeWX-Wi 1.01,2013-02-16 21:15:00,
2013-02-16 13:20:00,54.7,49.6,30.27,North,-999,0.0,0.0,83,0.00,,,-99.99,FreeWX-Wi 1.01,2013-02-16 21:20:00,
2013-02-16 13:25:00,54.3,49.3,30.27,North,-999,0.0,0.0,83,0.00,,,-99.99,FreeWX-Wi 1.01,2013-02-16 21:25:00,
2013-02-16 13:30:00,54.3,48.2,30.27,North,-999,0.0,3.1,80,0.00,,,-99.99,FreeWX-Wi 1.01,2013-02-16 21:30:00,
2013-02-16 13:35:00,54.5,47.8,30.27,North,-999,0.0,0.0,78,0.00,,,-99.99,FreeWX-Wi 1.01,2013-02-16 21:35:00,
2013-02-16 13:40:00,54.5,46.4,30.27,North,-999,0.0,0.0,74,0.00,,,-99.99,FreeWX-Wi 1.01,2013-02-16 21:40:00,
2013-02-16 13:45:00,54.9,45.7,30.27,North,-999,0.0,4.0,71,0.00,,,-99.99,FreeWX-Wi 1.01,2013-02-16 21:45:00,
2013-02-16 13:50:00,54.9,44.1,30.27,North,-999,0.0,4.9,67,0.00,,,-99.99,FreeWX-Wi 1.01,2013-02-16 21:50:00,
2013-02-16 13:55:00,54.5,40.5,30.27,North,-999,0.0,4.0,59,0.00,,,-99.99,FreeWX-Wi 1.01,2013-02-16 21:55:00,
2013-02-16 14:00:00,54.7,35.4,30.27,North,-999,0.0,8.1,48,0.00,,,-99.99,FreeWX-Wi 1.01,2013-02-16 22:00:00,
2013-02-16 14:05:00,54.3,33.4,30.27,West,280,1.0,5.8,45,0.00,,,-99.99,FreeWX-Wi 1.01,2013-02-16 22:05:00,
2013-02-16 14:10:00,54.5,30.7,30.27,West,279,1.0,4.0,40,0.00,,,-99.99,FreeWX-Wi 1.01,2013-02-16 22:10:00,
2013-02-16 14:15:00,54.5,29.5,30.27,West,278,1.0,4.0,38,0.00,,,-99.99,FreeWX-Wi 1.01,2013-02-16 22:15:00,
2013-02-16 14:20:00,54.9,28.4,30.27,West,279,1.0,4.0,36,0.00,,,-99.99,FreeWX-Wi 1.01,2013-02-16 22:20:00,
2013-02-16 14:25:00,54.9,27.7,30.27,West,278,1.0,4.0,35,0.00,,,-99.99,FreeWX-Wi 1.01,2013-02-16 22:25:00,
2013-02-16 14:30:00,54.9,24.1,30.27,West,274,1.0,3.6,30,0.00,,,-99.99,FreeWX-Wi 1.01,2013-02-16 22:30:00,
2013-02-16 14:35:00,54.9,25.5,30.27,North,-999,0.0,4.0,32,0.00,,,-99.99,FreeWX-Wi 1.01,2013-02-16 22:35:00,
2013-02-16 14:40:00,54.7,25.3,30.27,North,-999,0.0,4.0,32,0.00,,,-99.99,FreeWX-Wi 1.01,2013-02-16 22:40:00,
2013-02-16 14:45:00,54.7,22.3,30.27,North,-999,0.0,4.0,28,0.00,,,-99.99,FreeWX-Wi 1.01,2013-02-16 22:45:00,
2013-02-16 14:50:00,54.5,23.7,30.27,North,-999,0.0,2.7,30,0.00,,,-99.99,FreeWX-Wi 1.01,2013-02-16 22:50:00,
2013-02-16 14:55:00,54.5,23.7,30.27,West,276,1.0,4.0,30,0.00,,,-99.99,FreeWX-Wi 1.01,2013-02-16 22:55:00,
2013-02-16 15:00:00,54.1,24.3,30.27,West,276,1.0,4.0,31,0.00,,,-99.99,FreeWX-Wi 1.01,2013-02-16 23:00:00,
2013-02-16 15:05:00,54.0,25.5,30.27,West,274,1.0,4.0,33,0.00,,,-99.99,FreeWX-Wi 1.01,2013-02-16 23:05:00,
2013-02-16 15:10:00,53.6,25.9,30.27,West,278,1.0,4.0,34,0.00,,,-99.99,FreeWX-Wi 1.01,2013-02-16 23:10:00,
2013-02-16 15:16:00,53.2,27.0,30.27,WNW,286,1.0,0.0,36,0.00,,,-99.99,FreeWX-Wi 1.01,2013-02-16 23:16:00,
2013-02-16 15:21:00,53.2,27.0,30.27,North,-999,0.0,0.0,36,0.00,,,-99.99,FreeWX-Wi 1.01,2013-02-16 23:21:00,
2013-02-16 15:26:00,53.2,24.8,30.27,North,-999,0.0,4.0,33,0.00,,,-99.99,FreeWX-Wi 1.01,2013-02-16 23:26:00,
2013-02-16 15:31:00,53.4,23.5,30.27,North,-999,0.0,3.1,31,0.00,,,-99.99,FreeWX-Wi 1.01,2013-02-16 23:31:00,
2013-02-16 15:36:00,53.6,23.0,30.27,North,-999,0.0,3.6,30,0.00,,,-99.99,FreeWX-Wi 1.01,2013-02-16 23:36:00,
2013-02-16 15:41:00,53.4,21.9,30.27,North,-999,0.0,5.4,29,0.00,,,-99.99,FreeWX-Wi 1.01,2013-02-16 23:41:00,
2013-02-16 15:46:00,53.6,21.4,30.27,North,-999,0.0,2.7,28,0.00,,,-99.99,FreeWX-Wi 1.01,2013-02-16 23:46:00,
2013-02-16 15:51:00,53.6,21.4,30.27,NNW,330,1.0,4.9,28,0.00,,,-99.99,FreeWX-Wi 1.01,2013-02-16 23:51:00,
2013-02-16 15:56:00,53.4,20.3,30.27,NW,309,1.0,5.8,27,0.00,,,-99.99,FreeWX-Wi 1.01,2013-02-16 23:56:00,
2013-02-16 16:01:00,53.4,20.3,30.27,WNW,298,1.0,0.0,27,0.00,,,-99.99,FreeWX-Wi 1.01,2013-02-17 00:01:00,
2013-02-16 16:06:00,53.2,20.1,30.27,WNW,299,1.0,5.8,27,0.00,,,-99.99,FreeWX-Wi 1.01,2013-02-17 00:06:00,
2013-02-16 16:11:00,52.9,19.8,30.27,WNW,299,1.0,6.3,27,0.00,,,-99.99,FreeWX-Wi 1.01,2013-02-17 00:11:00,
2013-02-16 16:16:00,52.5,19.6,30.27,WNW,293,1.0,4.0,27,0.00,,,-99.99,FreeWX-Wi 1.01,2013-02-17 00:16:00,
2013-02-16 16:21:00,52.3,20.3,30.27,North,-999,0.0,3.1,28,0.00,,,-99.99,FreeWX-Wi 1.01,2013-02-17 00:21:00,
2013-02-16 16:26:00,52.2,20.1,30.27,North,-999,0.0,4.0,28,0.00,,,-99.99,FreeWX-Wi 1.01,2013-02-17 00:26:00,
2013-02-16 16:31:00,52.0,20.7,30.27,North,-999,0.0,4.0,29,0.00,,,-99.99,FreeWX-Wi 1.01,2013-02-17 00:31:00,
2013-02-16 16:36:00,52.0,20.7,30.27,North,-999,0.0,4.0,29,0.00,,,-99.99,FreeWX-Wi 1.01,2013-02-17 00:36:00,
2013-02-16 16:41:00,51.8,21.4,30.27,North,-999,0.0,3.6,30,0.00,,,-99.99,FreeWX-Wi 1.01,2013-02-17 00:41:00,
2013-02-16 16:46:00,51.8,21.4,30.27,North,-999,0.0,0.0,30,0.00,,,-99.99,FreeWX-Wi 1.01,2013-02-17 00:46:00,
2013-02-16 16:51:00,51.6,21.2,30.27,North,-999,0.0,0.0,30,0.00,,,-99.99,FreeWX-Wi 1.01,2013-02-17 00:51:00,
2013-02-16 16:56:00,51.4,21.0,30.27,North,-999,0.0,0.0,30,0.00,,,-99.99,FreeWX-Wi 1.01,2013-02-17 00:56:00,
2013-02-16 17:01:00,51.1,20.7,30.27,North,-999,0.0,3.6,30,0.00,,,-99.99,FreeWX-Wi 1.01,2013-02-17 01:01:00,
2013-02-16 17:06:00,50.9,20.7,30.27,North,-999,0.0,3.6,30,0.00,,,-99.99,FreeWX-Wi 1.01,2013-02-17 01:06:00,
2013-02-16 17:11:00,50.5,21.7,30.27,North,-999,0.0,2.2,32,0.00,,,-99.99,FreeWX-Wi 1.01,2013-02-17 01:11:00,
2013-02-16 17:16:00,50.4,21.6,30.27,North,-999,0.0,0.0,32,0.00,,,-99.99,FreeWX-Wi 1.01,2013-02-17 01:16:00,
2013-02-16 17:21:00,50.2,22.8,30.27,North,-999,0.0,0.0,34,0.00,,,-99.99,FreeWX-Wi 1.01,2013-02-17 01:21:00,
2013-02-16 17:26:00,50.0,22.8,30.27,North,-999,0.0,0.0,34,0.00,,,-99.99,FreeWX-Wi 1.01,2013-02-17 01:26:00,
2013-02-16 17:31:00,49.8,22.6,30.27,North,-999,0.0,0.0,34,0.00,,,-99.99,FreeWX-Wi 1.01,2013-02-17 01:31:00,
2013-02-16 17:36:00,49.6,23.7,30.27,North,-999,0.0,0.0,36,0.00,,,-99.99,FreeWX-Wi 1.01,2013-02-17 01:36:00,
2013-02-16 17:41:00,49.3,23.5,30.27,North,-999,0.0,0.0,36,0.00,,,-99.99,FreeWX-Wi 1.01,2013-02-17 01:41:00,
2013-02-16 17:46:00,49.1,23.4,30.27,North,-999,0.0,0.0,36,0.00,,,-99.99,FreeWX-Wi 1.01,2013-02-17 01:46:00,
2013-02-16 17:51:00,48.7,23.7,30.27,North,-999,0.0,0.0,37,0.00,,,-99.99,FreeWX-Wi 1.01,2013-02-17 01:51:00,
2013-02-16 17:56:00,48.7,23.7,30.27,North,-999,0.0,0.0,37,0.00,,,-99.99,FreeWX-Wi 1.01,2013-02-17 01:56:00,
2013-02-16 18:01:00,48.4,23.4,30.27,North,-999,0.0,0.0,37,0.00,,,-99.99,FreeWX-Wi 1.01,2013-02-17 02:01:00,
2013-02-16 18:06:00,48.2,23.2,30.27,North,-999,0.0,0.0,37,0.00,,,-99.99,FreeWX-Wi 1.01,2013-02-17 02:06:00,
2013-02-16 18:11:00,48.2,23.2,30.27,North,-999,0.0,0.0,37,0.00,,,-99.99,FreeWX-Wi 1.01,2013-02-17 02:11:00,
2013-02-16 18:16:00,47.8,22.8,30.27,North,-999,0.0,0.0,37,0.00,,,-99.99,FreeWX-Wi 1.01,2013-02-17 02:16:00,
2013-02-16 18:21:00,47.7,22.6,30.27,North,-999,0.0,0.0,37,0.00,,,-99.99,FreeWX-Wi 1.01,2013-02-17 02:21:00,
2013-02-16 18:26:00,47.5,22.5,30.27,North,-999,0.0,0.0,37,0.00,,,-99.99,FreeWX-Wi 1.01,2013-02-17 02:26:00,
2013-02-16 18:31:00,47.3,23.0,30.27,North,-999,0.0,0.0,38,0.00,,,-99.99,FreeWX-Wi 1.01,2013-02-17 02:31:00,
2013-02-16 18:36:00,47.3,23.0,30.27,North,-999,0.0,0.0,38,0.00,,,-99.99,FreeWX-Wi 1.01,2013-02-17 02:36:00,
2013-02-16 18:41:00,47.1,22.8,30.27,North,-999,0.0,0.0,38,0.00,,,-99.99,FreeWX-Wi 1.01,2013-02-17 02:41:00,
2013-02-16 18:46:00,46.8,22.5,30.27,North,-999,0.0,0.0,38,0.00,,,-99.99,FreeWX-Wi 1.01,2013-02-17 02:46:00,
2013-02-16 18:51:00,46.6,22.3,30.27,North,-999,0.0,0.0,38,0.00,,,-99.99,FreeWX-Wi 1.01,2013-02-17 02:51:00,
2013-02-16 18:56:00,46.4,22.1,30.27,North,-999,0.0,0.0,38,0.00,,,-99.99,FreeWX-Wi 1.01,2013-02-17 02:56:00,
2013-02-16 19:01:00,46.4,22.8,30.27,North,-999,0.0,0.0,39,0.00,,,-99.99,FreeWX-Wi 1.01,2013-02-17 03:01:00,
2013-02-16 19:06:00,46.4,22.8,30.27,North,-999,0.0,0.0,39,0.00,,,-99.99,FreeWX-Wi 1.01,2013-02-17 03:06:00,
2013-02-16 19:11:00,46.2,22.6,30.27,North,-999,0.0,0.0,39,0.00,,,-99.99,FreeWX-Wi 1.01,2013-02-17 03:11:00,
2013-02-16 19:16:00,46.0,22.5,30.27,North,-999,0.0,0.0,39,0.00,,,-99.99,FreeWX-Wi 1.01,2013-02-17 03:16:00,
2013-02-16 19:21:00,45.9,22.3,30.27,North,-999,0.0,0.0,39,0.00,,,-99.99,FreeWX-Wi 1.01,2013-02-17 03:21:00,
2013-02-16 19:26:00,45.7,22.1,30.27,North,-999,0.0,3.1,39,0.00,,,-99.99,FreeWX-Wi 1.01,2013-02-17 03:26:00,
2013-02-16 19:31:00,45.7,22.1,30.30,North,-999,0.0,2.7,39,0.00,,,-99.99,FreeWX-Wi 1.01,2013-02-17 03:31:00,
2013-02-16 19:36:00,45.5,21.9,30.30,North,-999,0.0,0.0,39,0.00,,,-99.99,FreeWX-Wi 1.01,2013-02-17 03:36:00,
2013-02-16 19:41:00,45.5,21.9,30.30,North,-999,0.0,0.0,39,0.00,,,-99.99,FreeWX-Wi 1.01,2013-02-17 03:41:00,
2013-02-16 19:46:00,45.3,21.9,30.30,North,-999,0.0,0.0,39,0.00,,,-99.99,FreeWX-Wi 1.01,2013-02-17 03:46:00,
2013-02-16 19:51:00,45.3,22.5,30.30,North,-999,0.0,0.0,40,0.00,,,-99.99,FreeWX-Wi 1.01,2013-02-17 03:51:00,
2013-02-16 19:56:00,45.3,22.5,30.30,North,-999,0.0,0.0,40,0.00,,,-99.99,FreeWX-Wi 1.01,2013-02-17 03:56:00,
2013-02-16 20:01:00,45.1,22.3,30.30,North,-999,0.0,0.0,40,0.00,,,-99.99,FreeWX-Wi 1.01,2013-02-17 04:01:00,
2013-02-16 20:06:00,45.1,22.3,30.30,North,-999,0.0,0.0,40,0.00,,,-99.99,FreeWX-Wi 1.01,2013-02-17 04:06:00,
2013-02-16 20:11:00,45.0,22.1,30.30,North,-999,0.0,0.0,40,0.00,,,-99.99,FreeWX-Wi 1.01,2013-02-17 04:11:00,
2013-02-16 20:16:00,44.8,21.9,30.30,North,-999,0.0,0.0,40,0.00,,,-99.99,FreeWX-Wi 1.01,2013-02-17 04:16:00,
2013-02-16 20:21:00,44.6,21.7,30.30,North,-999,0.0,0.0,40,0.00,,,-99.99,FreeWX-Wi 1.01,2013-02-17 04:21:00,
2013-02-16 20:26:00,44.4,22.3,30.30,North,-999,0.0,3.1,41,0.00,,,-99.99,FreeWX-Wi 1.01,2013-02-17 04:26:00,
2013-02-16 20:31:00,44.4,22.3,30.30,North,-999,0.0,3.6,41,0.00,,,-99.99,FreeWX-Wi 1.01,2013-02-17 04:31:00,
2013-02-16 20:36:00,44.2,22.1,30.30,North,-999,0.0,0.0,41,0.00,,,-99.99,FreeWX-Wi 1.01,2013-02-17 04:36:00,
2013-02-16 20:41:00,44.2,22.1,30.30,North,-999,0.0,0.0,41,0.00,,,-99.99,FreeWX-Wi 1.01,2013-02-17 04:41:00,
2013-02-16 20:46:00,44.2,22.1,30.30,North,-999,0.0,0.0,41,0.00,,,-99.99,FreeWX-Wi 1.01,2013-02-17 04:46:00,
2013-02-16 20:51:00,44.2,22.1,30.30,North,-999,0.0,0.0,41,0.00,,,-99.99,FreeWX-Wi 1.01,2013-02-17 04:51:00,
2013-02-16 20:56:00,44.2,22.1,30.30,North,-999,0.0,0.0,41,0.00,,,-99.99,FreeWX-Wi 1.01,2013-02-17 04:56:00,
2013-02-16 21:01:00,44.2,22.1,30.30,North,-999,0.0,0.0,41,0.00,,,-99.99,FreeWX-Wi 1.01,2013-02-17 05:01:00,
2013-02-16 21:06:00,44.2,22.1,30.30,North,-999,0.0,0.0,41,0.00,,,-99.99,FreeWX-Wi 1.01,2013-02-17 05:06:00,
2013-02-16 21:11:00,44.2,22.1,30.30,North,-999,0.0,0.0,41,0.00,,,-99.99,FreeWX-Wi 1.01,2013-02-17 05:11:00,
2013-02-16 21:16:00,44.1,21.9,30.30,North,-999,0.0,0.0,41,0.00,,,-99.99,FreeWX-Wi 1.01,2013-02-17 05:16:00,
2013-02-16 21:21:00,44.2,21.4,30.30,North,-999,0.0,0.0,40,0.00,,,-99.99,FreeWX-Wi 1.01,2013-02-17 05:21:00,
2013-02-16 21:26:00,44.1,21.4,30.30,North,-999,0.0,0.0,40,0.00,,,-99.99,FreeWX-Wi 1.01,2013-02-17 05:26:00,
2013-02-16 21:31:00,43.7,21.0,30.30,North,-999,0.0,0.0,40,0.00,,,-99.99,FreeWX-Wi 1.01,2013-02-17 05:31:00,
2013-02-16 21:36:00,43.7,21.0,30.30,North,-999,0.0,0.0,40,0.00,,,-99.99,FreeWX-Wi 1.01,2013-02-17 05:36:00,
2013-02-16 21:41:00,43.7,21.0,30.30,North,-999,0.0,0.0,40,0.00,,,-99.99,FreeWX-Wi 1.01,2013-02-17 05:41:00,
2013-02-16 21:46:00,43.5,20.8,30.30,North,-999,0.0,0.0,40,0.00,,,-99.99,FreeWX-Wi 1.01,2013-02-17 05:46:00,
2013-02-16 21:51:00,43.5,20.8,30.30,North,-999,0.0,0.0,40,0.00,,,-99.99,FreeWX-Wi 1.01,2013-02-17 05:51:00,
2013-02-16 21:56:00,43.5,20.8,30.30,North,-999,0.0,0.0,40,0.00,,,-99.99,FreeWX-Wi 1.01,2013-02-17 05:56:00,
2013-02-16 22:01:00,43.3,20.1,30.30,North,-999,0.0,0.0,39,0.00,,,-99.99,FreeWX-Wi 1.01,2013-02-17 06:01:00,
2013-02-16 22:06:00,43.3,20.1,30.30,North,-999,0.0,0.0,39,0.00,,,-99.99,FreeWX-Wi 1.01,2013-02-17 06:06:00,
2013-02-16 22:11:00,43.2,20.5,30.30,North,-999,0.0,0.0,40,0.00,,,-99.99,FreeWX-Wi 1.01,2013-02-17 06:11:00,
2013-02-16 22:16:00,43.0,20.3,30.30,North,-999,0.0,0.0,40,0.00,,,-99.99,FreeWX-Wi 1.01,2013-02-17 06:16:00,
2013-02-16 22:22:00,43.0,20.3,30.30,North,-999,0.0,0.0,40,0.00,,,-99.99,FreeWX-Wi 1.01,2013-02-17 06:22:00,
2013-02-16 22:27:00,42.8,20.1,30.30,North,-999,0.0,0.0,40,0.00,,,-99.99,FreeWX-Wi 1.01,2013-02-17 06:27:00,
2013-02-16 22:32:00,42.6,19.9,30.30,North,-999,0.0,0.0,40,0.00,,,-99.99,FreeWX-Wi 1.01,2013-02-17 06:32:00,
2013-02-16 22:37:00,42.4,19.8,30.30,North,-999,0.0,0.0,40,0.00,,,-99.99,FreeWX-Wi 1.01,2013-02-17 06:37:00,
2013-02-16 22:42:00,42.4,19.8,30.30,North,-999,0.0,0.0,40,0.00,,,-99.99,FreeWX-Wi 1.01,2013-02-17 06:42:00,
2013-02-16 22:47:00,42.4,20.5,30.30,North,-999,0.0,0.0,41,0.00,,,-99.99,FreeWX-Wi 1.01,2013-02-17 06:47:00,
2013-02-16 22:52:00,42.3,20.3,30.30,North,-999,0.0,0.0,41,0.00,,,-99.99,FreeWX-Wi 1.01,2013-02-17 06:52:00,
2013-02-16 22:57:00,42.3,20.3,30.30,North,-999,0.0,0.0,41,0.00,,,-99.99,FreeWX-Wi 1.01,2013-02-17 06:57:00,
2013-02-16 23:02:00,42.3,20.3,30.30,North,-999,0.0,0.0,41,0.00,,,-99.99,FreeWX-Wi 1.01,2013-02-17 07:02:00,
2013-02-16 23:07:00,42.1,20.1,30.30,North,-999,0.0,0.0,41,0.00,,,-99.99,FreeWX-Wi 1.01,2013-02-17 07:07:00,
2013-02-16 23:12:00,41.9,20.5,30.30,North,-999,0.0,0.0,42,0.00,,,-99.99,FreeWX-Wi 1.01,2013-02-17 07:12:00,
2013-02-16 23:17:00,41.9,20.5,30.30,North,-999,0.0,0.0,42,0.00,,,-99.99,FreeWX-Wi 1.01,2013-02-17 07:17:00,
2013-02-16 23:22:00,42.1,20.7,30.30,North,-999,0.0,0.0,42,0.00,,,-99.99,FreeWX-Wi 1.01,2013-02-17 07:22:00,
2013-02-16 23:27:00,42.3,21.4,30.30,North,-999,0.0,0.0,43,0.00,,,-99.99,FreeWX-Wi 1.01,2013-02-17 07:27:00,
2013-02-16 23:32:00,42.4,21.6,30.30,North,-999,0.0,0.0,43,0.00,,,-99.99,FreeWX-Wi 1.01,2013-02-17 07:32:00,
2013-02-16 23:37:00,42.4,21.6,30.30,North,-999,0.0,0.0,43,0.00,,,-99.99,FreeWX-Wi 1.01,2013-02-17 07:37:00,
2013-02-16 23:42:00,42.3,21.4,30.30,North,-999,0.0,0.0,43,0.00,,,-99.99,FreeWX-Wi 1.01,2013-02-17 07:42:00,
2013-02-16 23:47:00,42.3,21.4,30.30,North,-999,0.0,0.0,43,0.00,,,-99.99,FreeWX-Wi 1.01,2013-02-17 07:47:00,
2013-02-16 23:52:00,42.4,21.6,30.30,North,-999,0.0,3.1,43,0.00,,,-99.99,FreeWX-Wi 1.01,2013-02-17 07:52:00,
2013-02-16 23:57:00,42.4,21.6,30.30,North,-999,0.0,0.0,43,0.00,,,-99.99,FreeWX-Wi 1.01,2013-02-17 07:57:00,